| time (UTC) | temp F | wind direction | speed MPH | gust MPH | rain 1hr in | rain 24hr in | rain mn in | humidity % | barometer mb |
| 20260902134735 | 86 | 133 | 0.0 | 3.0 | 0.00 | 0.00 | 0.00 | 71 | 1020.0 |
| 20260902134236 | 85 | 269 | 0.0 | 3.0 | 0.00 | 0.00 | 0.00 | 69 | 1020.3 |
| 20260902133735 | 85 | 58 | 2.0 | 2.0 | 0.00 | 0.00 | 0.00 | 70 | 1020.3 |
| 20260902133236 | 84 | 129 | 0.0 | 2.0 | 0.00 | 0.00 | 0.00 | 74 | 1020.3 |
| 20260902132735 | 84 | 269 | 0.0 | 2.0 | 0.00 | 0.00 | 0.00 | 73 | 1020.0 |
| 20260902132236 | 84 | 66 | 0.0 | 2.0 | 0.00 | 0.00 | 0.00 | 73 | 1020.3 |
| 20260902131735 | 83 | 164 | 0.0 | 2.0 | 0.00 | 0.00 | 0.00 | 75 | 1020.3 |
| 20260902131235 | 82 | 103 | 0.0 | 1.0 | 0.00 | 0.00 | 0.00 | 78 | 1020.3 |
| 20260902130735 | 81 | 104 | 0.0 | 2.0 | 0.00 | 0.00 | 0.00 | 79 | 1020.0 |
| 20260902130236 | 81 | 180 | 0.0 | 2.0 | 0.00 | 0.00 | 0.00 | 78 | 1020.3 |
| 20260902125735 | 79 | 173 | 0.0 | 2.0 | 0.00 | 0.00 | 0.00 | 82 | 1020.3 |
| 20260902125235 | 78 | 89 | 0.0 | 2.0 | 0.00 | 0.00 | 0.00 | 84 | 1020.0 |
| 20260902124735 | 78 | 235 | 1.0 | 2.0 | 0.00 | 0.00 | 0.00 | 82 | 1020.0 |
| 20260902124235 | 77 | 212 | 0.0 | 1.0 | 0.00 | 0.00 | 0.00 | 85 | 1020.0 |
| 20260902123735 | 76 | 135 | 0.0 | 1.0 | 0.00 | 0.00 | 0.00 | 87 | 1020.0 |
| 20260902123235 | 75 | 293 | 0.0 | 1.0 | 0.00 | 0.00 | 0.00 | 88 | 1020.0 |
| 20260902122735 | 74 | 235 | 0.0 | 1.0 | 0.00 | 0.00 | 0.00 | 88 | 1020.0 |
| 20260902122235 | 74 | 315 | 0.0 | 1.0 | 0.00 | 0.00 | 0.00 | 89 | 1020.0 |
| 20260902121735 | 73 | 116 | 0.0 | 1.0 | 0.00 | 0.00 | 0.00 | 90 | 1020.0 |
| 20260902121235 | 72 | 81 | 0.0 | 1.0 | 0.00 | 0.00 | 0.00 | 93 | 1020.0 |
| 20260902120735 | 71 | 242 | 0.0 | 1.0 | 0.00 | 0.00 | 0.00 | 94 | 1019.6 |
| 20260902120235 | 70 | 257 | 0.0 | 0.0 | 0.00 | 0.00 | 0.00 | 96 | 1019.6 |
| 20260902115735 | 70 | 269 | 0.0 | 0.0 | 0.00 | 0.00 | 0.00 | 96 | 1019.6 |
| 20260902115235 | 70 | 113 | 0.0 | 1.0 | 0.00 | 0.00 | 0.00 | 96 | 1019.6 |
| 20260902114735 | 70 | 135 | 0.0 | 1.0 | 0.00 | 0.00 | 0.00 | 96 | 1019.6 |
| 20260902114235 | 69 | 142 | 0.0 | 1.0 | 0.00 | 0.00 | 0.00 | 97 | 1019.6 |
| 20260902113735 | 69 | 299 | 0.0 | 1.0 | 0.00 | 0.00 | 0.00 | 97 | 1019.3 |
| 20260902113235 | 69 | 37 | 0.0 | 0.0 | 0.00 | 0.00 | 0.00 | 97 | 1019.3 |
| 20260902112735 | 69 | 37 | 0.0 | 1.0 | 0.00 | 0.00 | 0.00 | 97 | 1019.3 |
| 20260902112235 | 69 | 129 | 0.0 | 1.0 | 0.00 | 0.00 | 0.00 | 97 | 1019.3 |
| 20260902111735 | 69 | 122 | 0.0 | 1.0 | 0.00 | 0.00 | 0.00 | 97 | 1019.3 |
| 20260902111235 | 69 | 89 | 0.0 | 1.0 | 0.00 | 0.00 | 0.00 | 96 | 1019.3 |
| 20260902110735 | 69 | 117 | 0.0 | 1.0 | 0.00 | 0.00 | 0.00 | 96 | 1019.3 |
| 20260902110235 | 69 | 269 | 0.0 | 1.0 | 0.00 | 0.00 | 0.00 | 96 | 1019.3 |
| 20260902105735 | 69 | 269 | 0.0 | 1.0 | 0.00 | 0.00 | 0.00 | 96 | 1018.9 |
| 20260902105235 | 70 | 124 | 0.0 | 1.0 | 0.00 | 0.00 | 0.00 | 96 | 1018.6 |
| 20260902104736 | 69 | 237 | 0.0 | 1.0 | 0.00 | 0.00 | 0.00 | 96 | 1018.9 |
| 20260902104234 | 70 | 284 | 0.0 | 1.0 | 0.00 | 0.00 | 0.00 | 96 | 1018.6 |
| 20260902103735 | 70 | 129 | 0.0 | 1.0 | 0.00 | 0.00 | 0.00 | 96 | 1018.6 |
| 20260902103235 | 70 | 69 | 0.0 | 2.0 | 0.00 | 0.00 | 0.00 | 96 | 1018.9 |
| 20260902102735 | 69 | 47 | 0.0 | 2.0 | 0.00 | 0.00 | 0.00 | 96 | 1018.6 |
| 20260902102235 | 69 | 247 | 0.0 | 2.0 | 0.00 | 0.00 | 0.00 | 97 | 1018.9 |
| 20260902101735 | 69 | 282 | 0.0 | 0.0 | 0.00 | 0.00 | 0.00 | 96 | 1018.6 |
| 20260902101235 | 69 | 63 | 0.0 | 0.0 | 0.00 | 0.00 | 0.00 | 96 | 1018.6 |
| 20260902100735 | 70 | 217 | 0.0 | 1.0 | 0.00 | 0.00 | 0.00 | 96 | 1018.6 |
| 20260902100235 | 70 | 217 | 0.0 | 1.0 | 0.00 | 0.00 | 0.00 | 96 | 1018.6 |
| 20260902095735 | 70 | 113 | 0.0 | 0.0 | 0.00 | 0.00 | 0.00 | 96 | 1018.6 |
| 20260902095235 | 70 | 89 | 0.0 | 0.0 | 0.00 | 0.00 | 0.00 | 95 | 1018.6 |
| 20260902094735 | 70 | 89 | 0.0 | 0.0 | 0.00 | 0.00 | 0.00 | 95 | 1018.2 |
| 20260902094235 | 70 | 89 | 0.0 | 1.0 | 0.00 | 0.00 | 0.00 | 95 | 1018.6 |
| 20260902093735 | 70 | 89 | 0.0 | 2.0 | 0.00 | 0.00 | 0.00 | 95 | 1018.6 |
| 20260902093235 | 70 | 50 | 0.0 | 2.0 | 0.00 | 0.00 | 0.00 | 94 | 1018.2 |
| 20260902092735 | 71 | 101 | 0.0 | 2.0 | 0.00 | 0.00 | 0.00 | 94 | 1018.2 |
| 20260902092235 | 70 | 242 | 0.0 | 1.0 | 0.00 | 0.00 | 0.00 | 95 | 1018.2 |
| 20260902091735 | 70 | 230 | 0.0 | 1.0 | 0.00 | 0.00 | 0.00 | 95 | 1018.2 |
| 20260902091235 | 70 | 242 | 0.0 | 0.0 | 0.00 | 0.00 | 0.00 | 94 | 1018.2 |
| 20260902090735 | 70 | 115 | 0.0 | 1.0 | 0.00 | 0.00 | 0.00 | 94 | 1018.6 |
| 20260902090234 | 70 | 135 | 0.0 | 1.0 | 0.00 | 0.00 | 0.00 | 94 | 1018.2 |
| 20260902085735 | 70 | 304 | 0.0 | 1.0 | 0.00 | 0.00 | 0.00 | 94 | 1018.2 |
| 20260902085235 | 70 | 309 | 0.0 | 0.0 | 0.00 | 0.00 | 0.00 | 94 | 1018.2 |
| 20260902084735 | 71 | 240 | 0.0 | 0.0 | 0.00 | 0.00 | 0.00 | 93 | 1018.2 |
| 20260902084235 | 71 | 124 | 0.0 | 0.0 | 0.00 | 0.00 | 0.00 | 93 | 1018.2 |
| 20260902083735 | 70 | 339 | 0.0 | 0.0 | 0.00 | 0.00 | 0.00 | 94 | 1018.2 |
| 20260902083235 | 70 | 217 | 0.0 | 0.0 | 0.00 | 0.00 | 0.00 | 94 | 1017.9 |
| 20260902082736 | 70 | 135 | 0.0 | 0.0 | 0.00 | 0.00 | 0.00 | 94 | 1018.2 |
| 20260902082235 | 70 | 218 | 0.0 | 1.0 | 0.00 | 0.00 | 0.00 | 94 | 1018.2 |
| 20260902081735 | 70 | 224 | 0.0 | 1.0 | 0.00 | 0.00 | 0.00 | 94 | 1018.2 |
| 20260902081235 | 70 | 309 | 0.0 | 1.0 | 0.00 | 0.00 | 0.00 | 94 | 1018.2 |
| 20260902080735 | 70 | 62 | 0.0 | 1.0 | 0.00 | 0.00 | 0.00 | 94 | 1018.2 |
| 20260902080235 | 70 | 269 | 0.0 | 0.0 | 0.00 | 0.00 | 0.00 | 94 | 1018.2 |
| 20260902075735 | 70 | 113 | 0.0 | 0.0 | 0.00 | 0.00 | 0.00 | 93 | 1017.9 |
| 20260902075235 | 70 | 104 | 0.0 | 1.0 | 0.00 | 0.00 | 0.00 | 94 | 1017.9 |
| 20260902074735 | 71 | 257 | 0.0 | 1.0 | 0.00 | 0.00 | 0.00 | 93 | 1018.2 |
| 20260902074235 | 71 | 135 | 0.0 | 2.0 | 0.00 | 0.00 | 0.00 | 93 | 1018.2 |
| 20260902073735 | 71 | 44 | 0.0 | 2.0 | 0.00 | 0.00 | 0.00 | 93 | 1018.2 |
| 20260902073235 | 71 | 85 | 2.0 | 2.0 | 0.00 | 0.00 | 0.00 | 93 | 1018.2 |
| 20260902072734 | 71 | 89 | 0.0 | 2.0 | 0.00 | 0.00 | 0.00 | 92 | 1018.2 |
| 20260902072235 | 71 | 280 | 0.0 | 2.0 | 0.00 | 0.00 | 0.00 | 92 | 1018.2 |
| 20260902071735 | 71 | 269 | 0.0 | 0.0 | 0.00 | 0.00 | 0.00 | 93 | 1018.2 |
| 20260902071235 | 71 | 255 | 0.0 | 0.0 | 0.00 | 0.00 | 0.00 | 93 | 1018.2 |
| 20260902070735 | 71 | 102 | 0.0 | 0.0 | 0.00 | 0.00 | 0.00 | 93 | 1018.2 |
| 20260902070235 | 71 | 135 | 0.0 | 1.0 | 0.00 | 0.00 | 0.00 | 93 | 1018.2 |
| 20260902065735 | 71 | 124 | 0.0 | 1.0 | 0.00 | 0.00 | 0.00 | 92 | 1018.2 |
| 20260902065235 | 71 | 75 | 0.0 | 1.0 | 0.00 | 0.00 | 0.00 | 93 | 1018.2 |
| 20260902064735 | 71 | 117 | 0.0 | 1.0 | 0.00 | 0.00 | 0.00 | 92 | 1018.2 |
| 20260902064235 | 71 | 89 | 0.0 | 1.0 | 0.00 | 0.00 | 0.00 | 91 | 1018.2 |
| 20260902063735 | 72 | 135 | 0.0 | 1.0 | 0.00 | 0.00 | 0.00 | 90 | 1018.2 |
| 20260902063235 | 72 | 230 | 0.0 | 1.0 | 0.00 | 0.00 | 0.00 | 89 | 1018.2 |
| 20260902062734 | 72 | 212 | 0.0 | 1.0 | 0.00 | 0.00 | 0.00 | 89 | 1018.2 |
| 20260902062235 | 73 | 135 | 0.0 | 2.0 | 0.00 | 0.00 | 0.00 | 86 | 1018.2 |
| 20260902061735 | 73 | 88 | 0.0 | 2.0 | 0.00 | 0.00 | 0.00 | 85 | 1018.6 |
| 20260902061234 | 73 | 224 | 0.0 | 1.0 | 0.00 | 0.00 | 0.00 | 85 | 1018.2 |
| 20260902060735 | 73 | 195 | 0.0 | 1.0 | 0.00 | 0.00 | 0.00 | 85 | 1018.2 |
| 20260902060235 | 73 | 116 | 0.0 | 1.0 | 0.00 | 0.00 | 0.00 | 86 | 1018.2 |
| 20260902055735 | 73 | 183 | 0.0 | 1.0 | 0.00 | 0.00 | 0.00 | 87 | 1018.2 |
| 20260902055235 | 72 | 336 | 0.0 | 1.0 | 0.00 | 0.00 | 0.00 | 88 | 1018.2 |
| 20260902054735 | 72 | 230 | 0.0 | 1.0 | 0.00 | 0.00 | 0.00 | 90 | 1018.2 |
| 20260902054234 | 72 | 333 | 0.0 | 1.0 | 0.00 | 0.00 | 0.00 | 92 | 1018.2 |
| 20260902053735 | 72 | 284 | 0.0 | 1.0 | 0.00 | 0.00 | 0.00 | 92 | 1018.6 |
| 20260902053235 | 72 | 230 | 0.0 | 0.0 | 0.00 | 0.00 | 0.00 | 91 | 1018.2 |
| 20260902052735 | 72 | 68 | 0.0 | 0.0 | 0.00 | 0.00 | 0.00 | 91 | 1018.2 |
| 20260902052235 | 72 | 117 | 0.0 | 0.0 | 0.00 | 0.00 | 0.00 | 91 | 1018.2 |
| 20260902051735 | 72 | 229 | 0.0 | 0.0 | 0.00 | 0.00 | 0.00 | 90 | 1018.2 |
| 20260902051235 | 72 | 62 | 0.0 | 1.0 | 0.00 | 0.00 | 0.00 | 90 | 1018.2 |
| 20260902050735 | 73 | 154 | 0.0 | 2.0 | 0.00 | 0.00 | 0.00 | 90 | 1018.2 |
| 20260902050235 | 73 | 309 | 0.0 | 2.0 | 0.00 | 0.00 | 0.00 | 89 | 1018.6 |
| 20260902045734 | 73 | 94 | 2.0 | 2.0 | 0.00 | 0.00 | 0.00 | 88 | 1018.6 |
| 20260902045236 | 73 | 81 | 1.0 | 2.0 | 0.00 | 0.00 | 0.00 | 86 | 1018.6 |
| 20260902044735 | 73 | 135 | 0.0 | 1.0 | 0.00 | 0.00 | 0.00 | 87 | 1018.2 |
| 20260902044235 | 73 | 224 | 0.0 | 1.0 | 0.00 | 0.00 | 0.00 | 88 | 1018.2 |
| 20260902043735 | 73 | 242 | 0.0 | 1.0 | 0.00 | 0.00 | 0.00 | 89 | 1018.2 |
| 20260902043235 | 73 | 284 | 0.0 | 1.0 | 0.00 | 0.00 | 0.00 | 90 | 1018.6 |
| 20260902042735 | 73 | 269 | 0.0 | 1.0 | 0.00 | 0.00 | 0.00 | 90 | 1018.2 |
| 20260902042235 | 73 | 224 | 0.0 | 0.0 | 0.00 | 0.00 | 0.00 | 90 | 1018.6 |
| 20260902041735 | 73 | 142 | 0.0 | 1.0 | 0.00 | 0.00 | 0.00 | 90 | 1018.6 |
| 20260902041235 | 73 | 290 | 0.0 | 1.0 | 0.00 | 0.00 | 0.00 | 91 | 1018.6 |
| 20260902040735 | 73 | 135 | 0.0 | 0.0 | 0.00 | 0.00 | 0.00 | 91 | 1018.6 |
| 20260902040235 | 73 | 108 | 0.0 | 0.0 | 0.00 | 0.00 | 0.00 | 90 | 1018.6 |
| 20260902035735 | 73 | 315 | 0.0 | 0.0 | 0.00 | 0.00 | 0.00 | 90 | 1018.6 |
| 20260902035234 | 73 | 135 | 0.0 | 0.0 | 0.00 | 0.00 | 0.00 | 89 | 1018.6 |
| 20260902034735 | 73 | 142 | 0.0 | 0.0 | 0.00 | 0.00 | 0.00 | 90 | 1018.6 |
| 20260902034235 | 74 | 230 | 0.0 | 0.0 | 0.00 | 0.00 | 0.00 | 89 | 1018.6 |
| 20260902033735 | 74 | 130 | 0.0 | 0.0 | 0.00 | 0.00 | 0.00 | 89 | 1018.9 |
| 20260902033234 | 74 | 309 | 0.0 | 1.0 | 0.00 | 0.00 | 0.00 | 88 | 1018.9 |
| 20260902032734 | 74 | 80 | 0.0 | 1.0 | 0.00 | 0.00 | 0.00 | 87 | 1018.9 |
| 20260902032235 | 74 | 101 | 0.0 | 1.0 | 0.00 | 0.00 | 0.00 | 88 | 1018.6 |
| 20260902031735 | 75 | 297 | 0.0 | 1.0 | 0.00 | 0.00 | 0.00 | 87 | 1018.6 |
| 20260902031235 | 75 | 44 | 0.0 | 1.0 | 0.00 | 0.00 | 0.00 | 88 | 1018.6 |
| 20260902030735 | 75 | 124 | 0.0 | 0.0 | 0.00 | 0.00 | 0.00 | 87 | 1018.6 |
| 20260902030235 | 75 | 269 | 0.0 | 1.0 | 0.00 | 0.00 | 0.00 | 85 | 1018.6 |
| 20260902025735 | 75 | 89 | 0.0 | 1.0 | 0.00 | 0.00 | 0.00 | 86 | 1018.6 |
| 20260902025235 | 75 | 135 | 0.0 | 1.0 | 0.00 | 0.00 | 0.00 | 84 | 1018.6 |
| 20260902024735 | 76 | 142 | 0.0 | 1.0 | 0.00 | 0.00 | 0.00 | 84 | 1018.6 |
| 20260902024235 | 76 | 75 | 0.0 | 1.0 | 0.00 | 0.00 | 0.00 | 86 | 1018.6 |
| 20260902023735 | 76 | 230 | 0.0 | 1.0 | 0.00 | 0.00 | 0.00 | 86 | 1018.6 |
| 20260902023234 | 76 | 128 | 1.0 | 1.0 | 0.00 | 0.00 | 0.00 | 85 | 1018.6 |
| 20260902022735 | 76 | 224 | 0.0 | 1.0 | 0.00 | 0.00 | 0.00 | 85 | 1018.6 |
| 20260902022235 | 77 | 304 | 0.0 | 1.0 | 0.00 | 0.00 | 0.00 | 86 | 1018.6 |
| 20260902021734 | 77 | 315 | 0.0 | 1.0 | 0.00 | 0.00 | 0.00 | 86 | 1018.2 |
| 20260902021235 | 77 | 119 | 0.0 | 1.0 | 0.00 | 0.00 | 0.00 | 86 | 1018.6 |
| 20260902020735 | 77 | 75 | 0.0 | 0.0 | 0.00 | 0.00 | 0.00 | 86 | 1018.2 |
| 20260902020235 | 77 | 135 | 0.0 | 1.0 | 0.00 | 0.00 | 0.00 | 86 | 1018.2 |
| 20260902015735 | 77 | 135 | 0.0 | 1.0 | 0.00 | 0.00 | 0.00 | 86 | 1018.2 |
| 20260902015234 | 77 | 122 | 1.0 | 1.0 | 0.00 | 0.00 | 0.00 | 85 | 1018.2 |
| 20260902014735 | 77 | 135 | 0.0 | 1.0 | 0.00 | 0.00 | 0.00 | 85 | 1018.2 |
| 20260902014235 | 78 | 135 | 0.0 | 0.0 | 0.00 | 0.00 | 0.00 | 85 | 1018.2 |
| 20260902013735 | 78 | 217 | 0.0 | 2.0 | 0.00 | 0.00 | 0.00 | 84 | 1018.2 |
| 20260902013235 | 78 | 117 | 0.0 | 2.0 | 0.00 | 0.00 | 0.00 | 84 | 1018.2 |
| 20260902012734 | 78 | 89 | 0.0 | 2.0 | 0.00 | 0.00 | 0.00 | 82 | 1018.2 |
| 20260902012235 | 79 | 103 | 0.0 | 1.0 | 0.00 | 0.00 | 0.00 | 83 | 1018.2 |
| 20260902011735 | 79 | 135 | 0.0 | 1.0 | 0.00 | 0.00 | 0.00 | 83 | 1017.9 |
| 20260902011235 | 79 | 75 | 0.0 | 1.0 | 0.00 | 0.00 | 0.00 | 82 | 1017.9 |
| 20260902010735 | 79 | 224 | 0.0 | 1.0 | 0.00 | 0.00 | 0.00 | 82 | 1017.9 |
| 20260902010235 | 79 | 206 | 0.0 | 1.0 | 0.00 | 0.00 | 0.00 | 81 | 1017.9 |
| 20260902005734 | 79 | 269 | 0.0 | 0.0 | 0.00 | 0.00 | 0.00 | 82 | 1017.9 |
| 20260902005235 | 79 | 224 | 0.0 | 0.0 | 0.00 | 0.00 | 0.00 | 83 | 1017.9 |
| 20260902004734 | 79 | 124 | 0.0 | 1.0 | 0.00 | 0.00 | 0.00 | 84 | 1017.9 |
| 20260902004234 | 79 | 120 | 0.0 | 1.0 | 0.00 | 0.00 | 0.00 | 84 | 1017.9 |
| 20260902003734 | 80 | 115 | 0.0 | 1.0 | 0.00 | 0.00 | 0.00 | 83 | 1017.5 |
| 20260902003235 | 81 | 103 | 0.0 | 1.0 | 0.00 | 0.00 | 0.00 | 81 | 1017.9 |
| 20260902002735 | 81 | 235 | 0.0 | 0.0 | 0.00 | 0.00 | 0.00 | 80 | 1017.9 |
| 20260902002235 | 81 | 230 | 0.0 | 0.0 | 0.00 | 0.00 | 0.00 | 80 | 1017.5 |
| 20260902001735 | 81 | 44 | 0.0 | 0.0 | 0.00 | 0.00 | 0.00 | 79 | 1017.9 |
| 20260902001234 | 82 | 44 | 0.0 | 1.0 | 0.00 | 0.00 | 0.00 | 78 | 1017.9 |
| 20260902000735 | 83 | 103 | 0.0 | 1.0 | 0.00 | 0.00 | 0.00 | 76 | 1017.9 |
| 20260902000234 | 84 | 129 | 0.0 | 1.0 | 0.00 | 0.00 | 0.00 | 73 | 1017.5 |
| 20260901235735 | 85 | 135 | 0.0 | 0.0 | 0.00 | 0.00 | 0.00 | 71 | 1017.9 |
| 20260901235234 | 86 | 117 | 0.0 | 0.0 | 0.00 | 0.00 | 0.00 | 70 | 1017.9 |
| 20260901234734 | 87 | 137 | 0.0 | 0.0 | 0.00 | 0.00 | 0.00 | 67 | 1017.9 |
| 20260901234235 | 87 | 44 | 0.0 | 0.0 | 0.00 | 0.00 | 0.00 | 65 | 1017.9 |
| 20260901233735 | 88 | 44 | 0.0 | 0.0 | 0.00 | 0.00 | 0.00 | 63 | 1017.9 |
| 20260901233235 | 89 | 44 | 0.0 | 0.0 | 0.00 | 0.00 | 0.00 | 61 | 1017.9 |
| 20260901232735 | 89 | 309 | 0.0 | 1.0 | 0.00 | 0.00 | 0.00 | 60 | 1018.2 |
| 20260901232235 | 90 | 113 | 0.0 | 1.0 | 0.00 | 0.00 | 0.00 | 60 | 1017.9 |
| 20260901231735 | 92 | 117 | 0.0 | 0.0 | 0.00 | 0.00 | 0.00 | 57 | 1017.9 |
| 20260901231235 | 92 | 62 | 0.0 | 1.0 | 0.00 | 0.00 | 0.00 | 57 | 1017.9 |
| 20260901230735 | 92 | 50 | 0.0 | 1.0 | 0.00 | 0.00 | 0.00 | 57 | 1017.9 |
| 20260901230235 | 92 | 50 | 0.0 | 1.0 | 0.00 | 0.00 | 0.00 | 57 | 1018.2 |
| 20260901225735 | 92 | 142 | 0.0 | 1.0 | 0.00 | 0.00 | 0.00 | 56 | 1017.9 |
| 20260901225234 | 92 | 217 | 0.0 | 0.0 | 0.00 | 0.00 | 0.00 | 56 | 1018.2 |
| 20260901224735 | 92 | 217 | 0.0 | 2.0 | 0.00 | 0.00 | 0.00 | 56 | 1017.9 |
| 20260901224234 | 92 | 242 | 0.0 | 2.0 | 0.00 | 0.00 | 0.00 | 56 | 1017.9 |
| 20260901223734 | 92 | 69 | 0.0 | 3.0 | 0.00 | 0.00 | 0.00 | 56 | 1017.9 |
| 20260901223235 | 92 | 62 | 0.0 | 3.0 | 0.00 | 0.00 | 0.00 | 54 | 1017.9 |
| 20260901222735 | 93 | 44 | 0.0 | 3.0 | 0.00 | 0.00 | 0.00 | 54 | 1017.9 |
| 20260901222235 | 93 | 135 | 0.0 | 3.0 | 0.00 | 0.00 | 0.00 | 51 | 1017.9 |
| 20260901221735 | 93 | 195 | 0.0 | 3.0 | 0.00 | 0.00 | 0.00 | 49 | 1017.9 |
| 20260901221234 | 93 | 207 | 0.0 | 2.0 | 0.00 | 0.00 | 0.00 | 52 | 1017.9 |
| 20260901220735 | 93 | 124 | 0.0 | 2.0 | 0.00 | 0.00 | 0.00 | 50 | 1017.9 |
| 20260901220235 | 93 | 6 | 0.0 | 2.0 | 0.00 | 0.00 | 0.00 | 50 | 1018.2 |
| 20260901215735 | 93 | 203 | 0.0 | 2.0 | 0.00 | 0.00 | 0.00 | 48 | 1017.9 |
| 20260901215235 | 93 | 197 | 0.0 | 3.0 | 0.00 | 0.00 | 0.00 | 46 | 1017.9 |
| 20260901214735 | 93 | 69 | 0.0 | 3.0 | 0.00 | 0.00 | 0.00 | 48 | 1017.9 |
| 20260901214235 | 93 | 235 | 2.0 | 2.0 | 0.00 | 0.00 | 0.00 | 45 | 1018.2 |
| 20260901213735 | 93 | 66 | 0.0 | 3.0 | 0.00 | 0.00 | 0.00 | 44 | 1017.9 |
| 20260901213235 | 93 | 116 | 0.0 | 4.0 | 0.00 | 0.00 | 0.00 | 46 | 1017.9 |
| 20260901212734 | 93 | 91 | 3.0 | 7.0 | 0.00 | 0.00 | 0.00 | 44 | 1018.2 |
| 20260901212235 | 93 | 94 | 3.0 | 7.0 | 0.00 | 0.00 | 0.00 | 47 | 1017.9 |
| 20260901211712 | 93 | 76 | 5.0 | 5.0 | 0.00 | 0.00 | 0.00 | 44 | 1018.2 |
| 20260901211211 | 93 | 79 | 5.0 | 5.0 | 0.00 | 0.00 | 0.00 | 46 | 1017.9 |
| 20260901210711 | 93 | 97 | 3.0 | 5.0 | 0.00 | 0.00 | 0.00 | 46 | 1017.9 |
| 20260901210212 | 93 | 89 | 3.0 | 7.0 | 0.00 | 0.00 | 0.00 | 47 | 1018.2 |
| 20260901205711 | 93 | 51 | 4.0 | 7.0 | 0.00 | 0.00 | 0.00 | 46 | 1017.9 |
| 20260901205212 | 94 | 99 | 3.0 | 5.0 | 0.00 | 0.00 | 0.00 | 48 | 1017.9 |
| 20260901204711 | 93 | 95 | 3.0 | 6.0 | 0.00 | 0.00 | 0.00 | 49 | 1018.2 |
| 20260901204212 | 93 | 70 | 5.0 | 6.0 | 0.00 | 0.00 | 0.00 | 51 | 1017.9 |
| 20260901203712 | 93 | 71 | 3.0 | 7.0 | 0.00 | 0.00 | 0.00 | 44 | 1018.6 |
| 20260901203212 | 94 | 68 | 5.0 | 7.0 | 0.00 | 0.00 | 0.00 | 50 | 1018.6 |
| 20260901202712 | 94 | 88 | 2.0 | 5.0 | 0.00 | 0.00 | 0.00 | 51 | 1018.2 |
| 20260901202212 | 94 | 94 | 3.0 | 8.0 | 0.00 | 0.00 | 0.00 | 49 | 1018.6 |
| 20260901201713 | 94 | 98 | 5.0 | 8.0 | 0.00 | 0.00 | 0.00 | 50 | 1018.2 |
| 20260901201213 | 95 | 74 | 3.0 | 5.0 | 0.00 | 0.00 | 0.00 | 51 | 1018.6 |
| 20260901200713 | 94 | 76 | 4.0 | 5.0 | 0.00 | 0.00 | 0.00 | 47 | 1018.6 |
| 20260901200212 | 94 | 92 | 3.0 | 8.0 | 0.00 | 0.00 | 0.00 | 49 | 1018.9 |
| 20260901195712 | 93 | 43 | 1.0 | 8.0 | 0.00 | 0.00 | 0.00 | 48 | 1018.6 |
| 20260901195211 | 93 | 38 | 5.0 | 8.0 | 0.00 | 0.00 | 0.00 | 52 | 1018.6 |
| 20260901194713 | 93 | 85 | 4.0 | 8.0 | 0.00 | 0.00 | 0.00 | 51 | 1018.6 |
| 20260901194212 | 93 | 151 | 4.0 | 4.0 | 0.00 | 0.00 | 0.00 | 54 | 1018.6 |
| 20260901193712 | 93 | 263 | 4.0 | 5.0 | 0.00 | 0.00 | 0.00 | 50 | 1018.6 |
| 20260901193212 | 93 | 292 | 3.0 | 5.0 | 0.00 | 0.00 | 0.00 | 48 | 1018.9 |
| 20260901192713 | 93 | 144 | 4.0 | 7.0 | 0.00 | 0.00 | 0.00 | 50 | 1018.9 |
| 20260901192212 | 94 | 71 | 4.0 | 7.0 | 0.00 | 0.00 | 0.00 | 49 | 1018.9 |
| 20260901191712 | 95 | 92 | 5.0 | 5.0 | 0.00 | 0.00 | 0.00 | 49 | 1019.3 |
| 20260901191213 | 94 | 93 | 2.0 | 5.0 | 0.00 | 0.00 | 0.00 | 50 | 1019.3 |
| 20260901190712 | 94 | 111 | 2.0 | 5.0 | 0.00 | 0.00 | 0.00 | 51 | 1019.3 |
| 20260901190212 | 94 | 78 | 4.0 | 5.0 | 0.00 | 0.00 | 0.00 | 52 | 1019.3 |
| 20260901185712 | 93 | 92 | 3.0 | 6.0 | 0.00 | 0.00 | 0.00 | 53 | 1019.3 |
| 20260901185211 | 93 | 83 | 4.0 | 6.0 | 0.00 | 0.00 | 0.00 | 54 | 1019.3 |
| 20260901184711 | 94 | 86 | 4.0 | 6.0 | 0.00 | 0.00 | 0.00 | 52 | 1019.6 |
| 20260901184212 | 94 | 86 | 2.0 | 6.0 | 0.00 | 0.00 | 0.00 | 53 | 1019.3 |
| 20260901183712 | 93 | 75 | 2.0 | 4.0 | 0.00 | 0.00 | 0.00 | 51 | 1019.6 |
| 20260901183212 | 93 | 189 | 2.0 | 5.0 | 0.00 | 0.00 | 0.00 | 50 | 1019.6 |
| 20260901182712 | 93 | 153 | 0.0 | 5.0 | 0.00 | 0.00 | 0.00 | 51 | 1019.3 |
| 20260901182212 | 92 | 17 | 0.0 | 6.0 | 0.00 | 0.00 | 0.00 | 55 | 1019.6 |
| 20260901181711 | 93 | 82 | 2.0 | 6.0 | 0.00 | 0.00 | 0.00 | 52 | 1019.6 |
| 20260901181211 | 93 | 256 | 3.0 | 4.0 | 0.00 | 0.00 | 0.00 | 51 | 1019.6 |
| 20260901180712 | 92 | 115 | 2.0 | 4.0 | 0.00 | 0.00 | 0.00 | 51 | 1019.6 |
| 20260901180211 | 93 | 140 | 0.0 | 4.0 | 0.00 | 0.00 | 0.00 | 51 | 1019.6 |
| 20260901175712 | 94 | 214 | 3.0 | 7.0 | 0.00 | 0.00 | 0.00 | 48 | 1020.0 |
| 20260901175211 | 93 | 84 | 1.0 | 7.0 | 0.00 | 0.00 | 0.00 | 49 | 1020.0 |
| 20260901174711 | 93 | 99 | 3.0 | 6.0 | 0.00 | 0.00 | 0.00 | 53 | 1020.0 |
| 20260901174211 | 91 | 149 | 3.0 | 6.0 | 0.00 | 0.00 | 0.00 | 54 | 1020.0 |
| 20260901173712 | 92 | 87 | 5.0 | 6.0 | 0.00 | 0.00 | 0.00 | 53 | 1020.0 |
| 20260901173213 | 92 | 84 | 3.0 | 6.0 | 0.00 | 0.00 | 0.00 | 55 | 1020.0 |
| 20260901172711 | 91 | 100 | 3.0 | 9.0 | 0.00 | 0.00 | 0.00 | 56 | 1020.3 |
| 20260901172212 | 91 | 94 | 4.0 | 9.0 | 0.00 | 0.00 | 0.00 | 56 | 1020.3 |
| 20260901171712 | 91 | 66 | 3.0 | 6.0 | 0.00 | 0.00 | 0.00 | 55 | 1020.3 |
| 20260901171212 | 91 | 82 | 3.0 | 5.0 | 0.00 | 0.00 | 0.00 | 54 | 1020.3 |
| 20260901170712 | 91 | 94 | 2.0 | 5.0 | 0.00 | 0.00 | 0.00 | 55 | 1020.7 |
| 20260901170211 | 90 | 111 | 2.0 | 4.0 | 0.00 | 0.00 | 0.00 | 57 | 1020.7 |
| 20260901165712 | 91 | 136 | 3.0 | 5.0 | 0.00 | 0.00 | 0.00 | 55 | 1020.7 |
| 20260901165212 | 91 | 188 | 2.0 | 5.0 | 0.00 | 0.00 | 0.00 | 53 | 1020.7 |
| 20260901164712 | 90 | 257 | 1.0 | 4.0 | 0.00 | 0.00 | 0.00 | 55 | 1021.0 |
| 20260901164212 | 88 | 225 | 0.0 | 4.0 | 0.00 | 0.00 | 0.00 | 59 | 1020.7 |
| 20260901163711 | 88 | 267 | 3.0 | 6.0 | 0.00 | 0.00 | 0.00 | 60 | 1020.7 |
| 20260901163212 | 88 | 263 | 3.0 | 7.0 | 0.00 | 0.00 | 0.00 | 59 | 1020.7 |
| 20260901162712 | 90 | 257 | 4.0 | 7.0 | 0.00 | 0.00 | 0.00 | 56 | 1020.7 |
| 20260901162211 | 91 | 260 | 5.0 | 6.0 | 0.00 | 0.00 | 0.00 | 60 | 1021.0 |
| 20260901161714 | 90 | 73 | 2.0 | 6.0 | 0.00 | 0.00 | 0.00 | 60 | 1021.0 |
| 20260901161212 | 89 | 180 | 1.0 | 7.0 | 0.00 | 0.00 | 0.00 | 62 | 1021.0 |
| 20260901160715 | 91 | 301 | 6.0 | 7.0 | 0.00 | 0.00 | 0.00 | 60 | 1020.7 |
| 20260901160212 | 90 | 223 | 1.0 | 4.0 | 0.00 | 0.00 | 0.00 | 61 | 1020.7 |
| 20260901155712 | 89 | 89 | 0.0 | 4.0 | 0.00 | 0.00 | 0.00 | 60 | 1021.0 |
| 20260901155211 | 89 | 151 | 1.0 | 4.0 | 0.00 | 0.00 | 0.00 | 62 | 1021.0 |
| 20260901154712 | 90 | 83 | 0.0 | 5.0 | 0.00 | 0.00 | 0.00 | 60 | 1020.7 |
| 20260901154212 | 90 | 281 | 4.0 | 5.0 | 0.00 | 0.00 | 0.00 | 60 | 1021.0 |
| 20260901153712 | 89 | 110 | 0.0 | 5.0 | 0.00 | 0.00 | 0.00 | 62 | 1021.0 |
| 20260901153212 | 90 | 156 | 0.0 | 5.0 | 0.00 | 0.00 | 0.00 | 62 | 1021.0 |
| 20260901152712 | 91 | 3 | 3.0 | 4.0 | 0.00 | 0.00 | 0.00 | 59 | 1021.0 |
| 20260901152212 | 89 | 204 | 0.0 | 4.0 | 0.00 | 0.00 | 0.00 | 61 | 1021.0 |
| 20260901151711 | 90 | 71 | 4.0 | 4.0 | 0.00 | 0.00 | 0.00 | 64 | 1021.0 |
| 20260901151212 | 90 | 315 | 1.0 | 4.0 | 0.00 | 0.00 | 0.00 | 62 | 1021.0 |
| 20260901150712 | 89 | 131 | 0.0 | 3.0 | 0.00 | 0.00 | 0.00 | 63 | 1021.0 |
| 20260901150212 | 89 | 141 | 1.0 | 4.0 | 0.00 | 0.00 | 0.00 | 63 | 1021.0 |
| 20260901145712 | 90 | 162 | 0.0 | 4.0 | 0.00 | 0.00 | 0.00 | 60 | 1021.0 |
| 20260901145211 | 89 | 205 | 0.0 | 4.0 | 0.00 | 0.00 | 0.00 | 63 | 1020.7 |
| 20260901144712 | 88 | 113 | 0.0 | 4.0 | 0.00 | 0.00 | 0.00 | 66 | 1020.7 |
| 20260901144211 | 87 | 204 | 0.0 | 4.0 | 0.00 | 0.00 | 0.00 | 67 | 1020.7 |
| 20260901143712 | 87 | 282 | 3.0 | 4.0 | 0.00 | 0.00 | 0.00 | 66 | 1021.0 |
| 20260901143211 | 88 | 307 | 3.0 | 4.0 | 0.00 | 0.00 | 0.00 | 71 | 1020.7 |
| 20260901142712 | 87 | 202 | 0.0 | 2.0 | 0.00 | 0.00 | 0.00 | 71 | 1021.0 |
| 20260901142212 | 87 | 100 | 0.0 | 3.0 | 0.00 | 0.00 | 0.00 | 71 | 1020.7 |
| 20260901141712 | 88 | 320 | 0.0 | 3.0 | 0.00 | 0.00 | 0.00 | 69 | 1020.7 |
| 20260901141213 | 88 | 240 | 1.0 | 4.0 | 0.00 | 0.00 | 0.00 | 69 | 1020.7 |
| 20260901140712 | 87 | 211 | 0.0 | 4.0 | 0.00 | 0.00 | 0.00 | 72 | 1021.0 |
| 20260901140211 | 86 | 256 | 0.0 | 3.0 | 0.00 | 0.00 | 0.00 | 73 | 1021.0 |
| 20260901135711 | 85 | 296 | 0.0 | 6.0 | 0.00 | 0.00 | 0.00 | 76 | 1020.3 |
| 20260901135212 | 84 | 89 | 0.0 | 6.0 | 0.00 | 0.00 | 0.00 | 74 | 1020.7 |